Regional Weather Roundup
Issued by NWS

Home | Current Version | Previous Version | Graphics & Text | Print | Product List | Glossary On
Versions: 1 2 3 4 5 6 7 8 9 10 11 12 13 14 15 16 17 18 19 20 21 22 23 24 25 26 27 28 29 30 31 32 33 34 35 36 37 38 39 40 41 42 43 44 45 46 47 48 49 50
000
ASUS43 KMPX 242301
RWRMN
WEATHER ROUNDUP FOR MINNESOTA
NATIONAL WEATHER SERVICE TWIN CITIES/CHANHASSEN MN
600 PM CDT SUN SEP 24 2017


NOTE: "FAIR" INDICATES FEW OR NO CLOUDS BELOW 12,000 FEET WITH NO
SIGNIFICANT WEATHER AND/OR OBSTRUCTIONS TO VISIBILITY. N/A MEANS
CURRENT SKY AND/OR WEATHER CONDITIONS ARE NOT AVAILABLE.

MNZ060>063-068>070-250000-
   Twin Cities Metro

CITY           SKY/WX    TMP DP  RH WIND       PRES   REMARKS
TWIN CITIES    PTSUNNY   88  62  41 S9        29.84S
ST PAUL        MOSUNNY   85  64  49 SE13      29.84S
CRYSTAL        MOSUNNY   86  59  39 S13       29.82S
BLAINE         PTSUNNY   88  61  40 S15G23    29.84S
LAKEVILLE      MOSUNNY   82  61  47 S7        29.85S
EDEN PRAIRIE   MOSUNNY   87  64  46 S8        29.83R
SOUTH ST PAUL  SUNNY     87  60  40 S6        29.84S
LAKE ELMO      FAIR      84  64  51 SE8       29.87R
$$
MNZ001>005-007-008-013>017-022>024-027-028-250000-
   Northwest Minnesota

CITY           SKY/WX    TMP DP  RH WIND       PRES   REMARKS
BEMIDJI        CLOUDY    65  62  89 W15       29.82S
HALLOCK        CLOUDY    52  50  93 N16G23    29.89F
ROSEAU         DRIZZLE   54  48  82 NW9       29.84S
THIEF RVR FALL LGT RAIN  54  52  94 NW16      29.89R FOG
CROOKSTON      DRIZZLE   52  52 100 N14       29.90S
FOSSTON        CLOUDY    54  54 100 W14       29.89R FOG
DETROIT LAKES  LGT RAIN  54  54 100 NW13      29.91R
MOORHEAD       CLOUDY    54  52  94 N10       29.91S
PARK RAPIDS    CLOUDY    69  64  84 W10       29.84R
MAHNOMEN       DRIZZLE   54  53  97 W16G24    29.90R
$$
MNZ006-009>011-018-025>026-250000-
   North Central Minnesota

CITY           SKY/WX    TMP DP  RH WIND       PRES   REMARKS
BAUDETTE       CLOUDY    60  59  96 NW8       29.80S
FLAG ISLAND    DRIZZLE   55  54  94 NW15      29.80S
INTL FALLS     PTSUNNY   70  67  90 NW13G20   29.77S
WASKISH        CLOUDY    64  63  94 W7        29.81S
BIG FORK       CLOUDY    72  68  88 SW7       29.80S
LONGVILLE      RAIN      70  66  88 SW6       29.83R
GRAND RAPIDS   LGT RAIN  68  66  93 S6        29.83F
CRANE LAKE     PTCLDY    75  66  73 S5        29.80R
ORR            CLOUDY    75  64  69 SW7       29.79
WALKER         FAIR      68  64  87 SW9       29.82R
$$
MNZ012-019>021-037-250000-
   Northeast Minnesota

CITY           SKY/WX    TMP DP  RH WIND       PRES   REMARKS
DULUTH         LGT RAIN  70  66  87 SW13      29.89R
ELY            CLOUDY    77  64  65 S10       29.83F
HIBBING        PTCLDY    77  65  66 S5        29.81F
EVELETH        CLOUDY    78  55  44 S10       29.84S
DULUTH HARBOR  PTCLDY    64  63  94 NE7       29.85S
$$
MNZ029>031-032-039>041-046>048-054>057-064-250000-
   West Central Minnesota

CITY           SKY/WX    TMP DP  RH WIND       PRES   REMARKS
FERGUS FALLS   CLOUDY    55  55 100 NW9G18    29.90S
WHEATON        CLOUDY    57  52  82 NW9       29.93S
ALEXANDRIA     CLOUDY    66  62  87 W14       29.89R
ELBOW LAKE     CLOUDY    57  56  99 NW12      29.91R FOG
WADENA         CLOUDY    66  64  94 W10G16    29.86R
GLENWOOD       CLOUDY    66  64  94 W13G18    29.89R
APPLETON       CLOUDY    64  57  77 W10       29.89S
BENSON         CLOUDY    66  61  82 NW20      29.91R
ORTONVILLE     CLOUDY    61  55  82 N10       29.91R
MADISON        PTSUNNY   64  57  77 NW10G17   29.91R
WILLMAR        FAIR      72  66  83 W5        29.90R
$$
MNZ033>034-036-042>043-049>051-058-059-250000-
   Central Minnesota

CITY           SKY/WX    TMP DP  RH WIND       PRES   REMARKS
ST CLOUD       CLOUDY    72  66  81 W16G33    29.86R
SAUK CENTRE    FAIR      68  65  90 W6        29.86S
PAYNESVILLE    CLOUDY    68  66  96 W3        29.88R
AITKIN         MOSUNNY   66  64  94 S3        29.83R
PINE RIVER     CLOUDY    68  64  88 W6        29.87R
BRAINERD         N/A     67  64  90 S6        29.84R
STAPLES        CLOUDY    66  64  94 W7        29.85R
LITTLE FALLS   LGT RAIN  66  64  94 S3        29.87R
LITCHFIELD     PTSUNNY   72  66  83 W7        29.88R
BUFFALO        MOSUNNY   82  65  56 CALM      29.84S
MAPLE LAKE     MOSUNNY   78  69  73 CALM      29.85R
HUTCHINSON     CLOUDY    68  66  94 W15G28    29.90R VSB 3/4
$$
MNZ037-044-045-052-053-250000-
   East Central Minnesota

CITY           SKY/WX    TMP DP  RH WIND       PRES   REMARKS
PRINCETON      CLOUDY    77  70  78 CALM      29.84S
MORA           LGT RAIN  75  63  64 CALM      29.86R
RUSH CITY      SUNNY     78  70  76 S3        29.84S
MOOSE LAKE     MOSUNNY   72  66  83 CALM      29.83S
HINCKLEY       FAIR      79  66  65 S5        29.84S
CLOQUET        CLOUDY    73  64  73 S6        29.86R
MCGREGOR       CLOUDY    73  63  68 CALM      29.84R
$$
MNZ071>073-080-081-089-090-097-098-250000-
   Southwest Minnesota

CITY           SKY/WX    TMP DP  RH WIND       PRES   REMARKS
MONTEVIDEO     PTSUNNY   68  63  83 NW13G21   29.91R
GRANITE FALLS  PTSUNNY   72  64  75 W10       29.91R
CANBY          PTSUNNY   62  56  81 SW7       29.93R
MARSHALL       MOSUNNY   67  60  78 NW18      29.91R
REDWOOD FALLS  PTSUNNY   72  66  81 W8        29.89R
OLIVIA         CLOUDY    70  66  88 W8        29.89R
PIPESTONE      MOSUNNY   63  57  82 NW10      29.93S
WORTHINGTON    MOSUNNY   70  66  87 W12       29.92R
JACKSON        CLOUDY    72  63  73 CALM      29.91F
TRACY          MOSUNNY   73  65  76 SW5       29.91R
SLAYTON        PTSUNNY   71  57  61 W6        29.93R
$$
MNZ065>067-074>077-082>085-091>093-250000-
   South Central Minnesota

CITY           SKY/WX    TMP DP  RH WIND       PRES   REMARKS
MANKATO        PTSUNNY   86  63  45 S9G21     29.85S
NEW ULM        CLOUDY    72  64  78 W8        29.87R
ST JAMES       PTSUNNY   75  63  64 SW12G18   29.89R
FAIRMONT       LGT RAIN  78  65  63 W14       29.89R
FARIBAULT      MOSUNNY   84  61  45 S9        29.87S
OWATONNA       MOSUNNY   84  61  45 S8        29.88S
WASECA         MOSUNNY   82  57  42 S8        29.89R
ALBERT LEA     MOSUNNY   88  59  37 S7        29.89S
$$
MNZ078>079-086>088-094>096-250000-
   Southeast Minnesota

CITY           SKY/WX    TMP DP  RH WIND       PRES   REMARKS
ROCHESTER      SUNNY     84  62  47 S9        29.92S
RED WING       SUNNY     88  55  33 S5        29.86R
STANTON        SUNNY     85  61  43 S7        29.85S
DODGE CENTER   SUNNY     86  57  37 S13       29.90S
WINONA         PTCLDY    86  63  45 S3        29.90S
AUSTIN         SUNNY     84  61  45 S8        29.90S
PRESTON        SUNNY     84  59  43 S9        29.93S
$$
ABBREVIATIONS USED IN REMARKS
   TC - TEMPERATURES IN CELSIUS
  WCI - WIND CHILL INDEX
   HX - HEAT INDEX
  VSB - VISIBILITY
$$




USA.gov is the U.S. government's official web portal to all federal, state and local government web resources and services.